Location: Ostrava
(49.8330°N, 18.2830°E)
Time: 17:21:02
(UTC+02:00)

Lacrosse 5 - Visible Passes

Search period start: 24 July 2014 00:00
Search period end: 03 August 2014 00:00
Orbit: 710 x 718 km, 57.0° (Epoch: 17 July)

Date Brightness Start Highest point End Pass type
(mag) Time Alt. Az. Time Alt. Az. Time Alt. Az.
24 Jul 3.0 22:22:19 10° WNW 22:26:46 32° SW 22:30:03 16° S visible
25 Jul 2.3 21:27:18 10° WNW 21:32:13 53° SW 21:37:06 10° SSE visible
25 Jul 4.1 23:12:36 10° WSW 23:14:05 11° WSW 23:15:34 10° SW visible
26 Jul 3.7 22:16:06 10° WNW 22:19:47 21° SW 22:23:27 10° S visible
27 Jul 3.0 21:20:47 10° WNW 21:25:20 35° SW 21:29:52 10° SSE visible
28 Jul 4.2 22:10:38 10° W 22:12:41 12° WSW 22:14:44 10° SW visible
29 Jul 3.7 21:14:30 10° WNW 21:18:21 22° SW 21:22:12 10° S visible
31 Jul 4.3 21:08:48 10° W 21:11:17 14° WSW 21:13:45 10° SSW visible
